Weather History for Lanseria, South Africa

Change the Weather History Date:

Wednesday, September 11, 2013

  Actual Average Record
Temperature  
Mean Temperature 68 °F -  
Max Temperature 84 °F - - ()
Min Temperature 51 °F - - ()
Cooling Degree Days 2    
Growing Degree Days 18 (Base 50)    
Moisture  
Dew Point 33 °F    
Average Humidity 28    
Maximum Humidity 58    
Minimum Humidity 13    
Precipitation  
Precipitation 0.00 in - - ()
Sea Level Pressure  
Sea Level Pressure 30.12 in    
Wind  
Wind Speed 5 mph ()    
Max Wind Speed 15 mph    
Max Gust Speed -    
T = Trace of Precipitation, MM = Missing Value Source: Averaged Metar Reports

Daily Weather History Graph

Daily Weather History Graph

Search for Another Location

Airport:

Trip Planner

Search our weather history database for the weather conditions in past years. The results will help you decide how hot, cold, wet, or windy it might be!

Date:

Astronomy

Sep. 11, 2013 Rise Set
Actual Time 6:10 AM SAST 6:00 PM SAST
Civil Twilight 5:47 AM SAST 6:23 PM SAST
Nautical Twilight 5:20 AM SAST 6:49 PM SAST
Astronomical Twilight 4:53 AM SAST 7:16 PM SAST
Moon 10:06 AM SAST (9/11) 11:52 PM SAST (9/11)
Length of Visible Light 12h 36m
Length of Day
11h 50m
Waxing Crescent, 36% of the Moon is Illuminated
Sep 11
Waxing Crescent
Sep 12
First Quarter
Sep 19
Full
Sep 27
Last Quarter
Oct 5
New

Hourly Weather History & Observations

Time (SAST) Temp. Dew Point Humidity Pressure Visibility Wind Dir Wind Speed Gust Speed Precip Events Conditions
5:00 AM 53.6 °F 35.6 °F 51% 30.12 in - SSW 5.8 mph - N/A   Clear
6:00 AM 51.8 °F 37.4 °F 58% 30.15 in - ENE 3.5 mph - N/A   Clear
7:00 AM 53.6 °F 37.4 °F 54% 30.15 in - Calm Calm - N/A   Clear
8:00 AM 59.0 °F 35.6 °F 42% 30.18 in - SSW 6.9 mph - N/A   Clear
8:22 AM 62.6 °F 35.6 °F 37% 30.18 in - SW 4.6 mph - N/A   Clear
8:47 AM 66.2 °F 37.4 °F 35% 30.18 in - SW 5.8 mph - N/A   Clear
9:00 AM 68.0 °F 37.4 °F 33% 30.18 in - SSW 4.6 mph - N/A   Clear
9:14 AM 71.6 °F 37.4 °F 29% 30.18 in - Calm Calm - N/A   Clear
10:00 AM 71.6 °F 35.6 °F 27% 30.18 in - Variable 4.6 mph - N/A   Clear
10:21 AM 75.2 °F 35.6 °F 24% 30.18 in - Variable 3.5 mph - N/A   Clear
11:00 AM 77.0 °F 35.6 °F 22% 30.15 in - Variable 4.6 mph - N/A   Clear
12:00 PM 80.6 °F 32.0 °F 17% 30.12 in - WNW 12.7 mph - N/A   Clear
1:00 PM 82.4 °F 32.0 °F 16% 30.09 in - West 13.8 mph - N/A   Clear
2:00 PM 84.2 °F 30.2 °F 14% 30.06 in - WNW 15.0 mph - N/A   Clear
3:00 PM 84.2 °F 28.4 °F 13% 30.04 in - West 13.8 mph - N/A   Clear
4:00 PM 84.2 °F 30.2 °F 14% 30.04 in - West 11.5 mph - N/A   Clear
5:00 PM 80.6 °F 28.4 °F 15% 30.04 in - NW 10.4 mph - N/A   Clear
6:00 PM 77.0 °F 30.2 °F 18% 30.06 in - WNW 6.9 mph - N/A   Clear
7:00 PM 73.4 °F 30.2 °F 20% 30.06 in - NNW 3.5 mph - N/A   Clear
8:00 PM 75.2 °F 28.4 °F 18% 30.09 in - Calm Calm - N/A   Clear
9:00 PM 71.6 °F 30.2 °F 22% 30.09 in - SSE 5.8 mph - N/A   Clear
10:00 PM 69.8 °F 32.0 °F 25% 30.09 in - Variable 2.3 mph - N/A   Clear
11:00 PM 64.4 °F 35.6 °F 34% 30.12 in - ENE 2.3 mph - N/A   Clear